Terminal Aerodrome Forecast
Issued by NWS Omaha/Valley, NE

Current Version | Previous Version | Text Only | Print | Product List | Glossary On
Versions: 1 2 3 4 5 6 7 8 9 10 11 12 13 14 15 16 17 18 19 20 21 22 23 24 25 26 27 28 29 30 31 32 33 34 35 36 37 38 39 40 41 42 43 44 45 46 47 48 49 50
000
FTUS43 KOAX 210757 AAB
TAFOMA
TAF AMD
KOMA 210757Z 2108/2206 16011KT 3SM BR OVC006
      TEMPO 2108/2112 SCT006
     FM211200 16011KT 2SM BR OVC007
     FM211600 17013KT 4SM BR OVC012
     FM211900 17015G22KT 6SM BR OVC015=

USA.gov is the U.S. government's official web portal to all federal, state and local government web resources and services.